Location: Unspecified
(43.9939°N, 0.0000°E)
Time: 14:40:47
(UTC+00:00)

CZ-4 R/B DEB - Visible Passes

Search period start: 04 April 2026 00:00
Search period end: 14 April 2026 00:00
Orbit: 689 x 732 km, 98.3° (Epoch: 22 March)

Date Brightness Start Highest point End Pass type
(mag) Time Alt. Az. Time Alt. Az. Time Alt. Az.
4 Apr ? 20:14:34 10° SSW 20:18:55 38° W 20:23:18 10° NNW visible
5 Apr ? 19:21:24 10° SSE 19:26:01 65° ENE 19:30:41 10° N visible
5 Apr ? 21:01:56 10° WSW 21:04:22 14° W 21:06:49 10° WNW visible
6 Apr ? 20:06:38 10° S 20:11:06 45° W 20:15:39 10° NNW visible
7 Apr ? 19:13:42 10° SSE 19:18:15 55° ENE 19:22:52 10° N visible
7 Apr ? 20:53:29 10° SW 20:56:30 17° W 20:59:31 10° NW visible
8 Apr ? 19:58:42 10° S 20:03:16 54° W 20:07:55 10° NNW visible
9 Apr ? 19:06:00 10° SE 19:10:28 46° ENE 19:14:59 10° N visible
9 Apr ? 20:45:10 10° SW 20:48:35 20° W 20:52:03 10° NW visible
10 Apr ? 19:50:47 10° S 19:55:25 65° WSW 20:00:09 10° NNW visible
11 Apr ? 20:36:54 10° SSW 20:40:40 24° W 20:44:28 10° NW visible
12 Apr ? 19:42:52 10° S 19:47:33 78° WSW 19:52:19 10° NNW visible
13 Apr ? 20:28:42 10° SSW 20:32:44 28° W 20:36:49 10° NW visible
